Weather History for Grand Canyon, AZ

Change the Weather History Date:

Sunday, January 27, 2013

  Actual Average Record
Temperature  
Mean Temperature 38 °F -  
Max Temperature 44 °F 42 °F 60 °F (2003)
Min Temperature 33 °F 15 °F -12 °F (1979)
Degree Days  
Heating Degree Days 26    
Moisture  
Dew Point 35 °F    
Average Humidity 87    
Maximum Humidity 100    
Minimum Humidity 62    
Precipitation  
Precipitation 0.05 in - - ()
Sea Level Pressure  
Sea Level Pressure 29.90 in    
Wind  
Wind Speed 12 mph (SW)    
Max Wind Speed 25 mph    
Max Gust Speed 36 mph    
Visibility 7 miles    
Events Fog , Rain , Snow    
Averages and records for this station are not official NWS values.
T = Trace of Precipitation, MM = Missing Value Source: NWS Daily Summary

Daily Weather History Graph

Daily Weather History Graph

Search for Another Location

Airport:

Trip Planner

Search our weather history database for the weather conditions in past years. The results will help you decide how hot, cold, wet, or windy it might be!

Date:

Astronomy

Jan. 27, 2013 Rise Set
Actual Time 7:32 AM MST 5:50 PM MST
Civil Twilight 7:05 AM MST 6:18 PM MST
Nautical Twilight 6:34 AM MST 6:48 PM MST
Astronomical Twilight 6:04 AM MST 7:19 PM MST
Moon 6:45 PM MST (1/27) 7:30 AM MST (1/27)
Length of Visible Light 11h 12m
Length of Day
10h 18m
Full, 100% of the Moon is Illuminated
Jan 27
Full
Feb 3
Last Quarter
Feb 10
New
Feb 17
First Quarter
Feb 25
Full

Hourly Weather History & Observations

Time (MST) Temp. Windchill Dew Point Humidity Pressure Visibility Wind Dir Wind Speed Gust Speed Precip Events Conditions
12:29 AM 39.2 °F 35.0 °F 37.4 °F 93% 29.97 in 1.5 mi SW 5.8 mph - 0.00 in Rain Light Rain
12:37 AM 39.2 °F 34.2 °F 37.4 °F 93% 29.97 in 2.5 mi WSW 6.9 mph - 0.00 in Rain Rain
12:54 AM 39.0 °F 33.4 °F 37.9 °F 96% 29.88 in 2.5 mi SW 8.1 mph - 0.01 in Rain Rain
1:29 AM 39.2 °F 33.6 °F 37.4 °F 93% 29.97 in 1.2 mi SW 8.1 mph - 0.02 in Rain Light Rain
1:50 AM 39.2 °F 33.6 °F 37.4 °F 93% 29.96 in 0.5 mi WSW 8.1 mph - 0.02 in Fog , Rain Light Rain
1:54 AM 39.0 °F 33.4 °F 37.9 °F 96% 29.87 in 0.2 mi SW 8.1 mph - 0.02 in Fog Fog
2:07 AM 39.2 °F 32.0 °F 37.4 °F 93% 29.97 in 1.0 mi WSW 11.5 mph 18.4 mph 0.01 in Rain Light Rain
2:10 AM 39.2 °F 31.6 °F 37.4 °F 93% 29.97 in 2.0 mi WSW 12.7 mph 18.4 mph 0.01 in Rain Light Rain
2:17 AM 39.2 °F 32.0 °F 37.4 °F 93% 29.97 in 5.0 mi WSW 11.5 mph 19.6 mph 0.01 in   Overcast
2:54 AM 37.9 °F 30.5 °F 37.0 °F 97% 29.88 in 6.0 mi WSW 11.5 mph 19.6 mph 0.01 in Rain Light Rain
3:54 AM 37.9 °F 30.0 °F 37.0 °F 97% 29.88 in 3.0 mi WSW 12.7 mph - 0.00 in   Overcast
5:10 AM 37.4 °F 32.1 °F 35.6 °F 93% 29.96 in 10.0 mi WSW 6.9 mph 19.6 mph 0.01 in Rain Light Rain
5:18 AM 37.4 °F 31.4 °F 35.6 °F 93% 29.96 in 10.0 mi SW 8.1 mph - 0.01 in   Overcast
5:29 AM 37.4 °F 31.4 °F 35.6 °F 93% 29.96 in 10.0 mi WSW 8.1 mph - 0.01 in   Overcast
5:54 AM 37.9 °F 32.7 °F 36.0 °F 93% 29.88 in 10.0 mi WSW 6.9 mph - 0.01 in   Overcast
6:20 AM 37.4 °F 30.8 °F 35.6 °F 93% 29.96 in 2.5 mi SW 9.2 mph 18.4 mph 0.00 in Rain Light Rain
6:29 AM 37.4 °F 30.8 °F 35.6 °F 93% 29.96 in 6.0 mi SW 9.2 mph - 0.00 in   Overcast
6:54 AM 37.9 °F 31.5 °F 37.0 °F 97% 29.88 in 2.0 mi SW 9.2 mph - 0.00 in   Overcast
6:56 AM 37.4 °F 30.8 °F 37.4 °F 100% 29.97 in 1.2 mi SW 9.2 mph - N/A   Overcast
7:54 AM 37.9 °F 30.5 °F 36.0 °F 93% 29.89 in 2.0 mi SW 11.5 mph - N/A   Overcast
8:54 AM 37.9 °F 32.7 °F 36.0 °F 93% 29.91 in 4.0 mi West 6.9 mph - N/A   Overcast
9:54 AM 39.9 °F 32.5 °F 36.0 °F 86% 29.90 in 10.0 mi SW 12.7 mph 21.9 mph N/A   Overcast
10:01 AM 39.2 °F 30.2 °F 35.6 °F 87% 29.98 in 10.0 mi SW 17.3 mph 21.9 mph N/A   Overcast
10:13 AM 41.0 °F 32.8 °F 37.4 °F 87% 29.98 in 10.0 mi SW 16.1 mph 21.9 mph N/A   Overcast
10:36 AM 41.0 °F 34.3 °F 37.4 °F 87% 29.99 in 10.0 mi SW 11.5 mph 20.7 mph N/A   Overcast
10:50 AM 41.0 °F 32.5 °F 37.4 °F 87% 29.99 in 10.0 mi SW 17.3 mph 23.0 mph N/A   Overcast
10:54 AM 41.0 °F 32.5 °F 37.0 °F 86% 29.90 in 10.0 mi SW 17.3 mph 24.2 mph N/A   Overcast
10:57 AM 41.0 °F 31.9 °F 37.4 °F 87% 29.99 in 10.0 mi SSW 19.6 mph 24.2 mph N/A   Overcast
11:39 AM 44.6 °F 36.9 °F 37.4 °F 76% 29.98 in 10.0 mi SW 18.4 mph 29.9 mph N/A   Mostly Cloudy
11:54 AM 43.0 °F 35.7 °F 37.0 °F 80% 29.88 in 10.0 mi SW 15.0 mph - N/A   Mostly Cloudy
12:01 PM 42.8 °F 35.4 °F 37.4 °F 81% 29.97 in 10.0 mi SSW 15.0 mph 27.6 mph N/A   Mostly Cloudy
12:12 PM 42.8 °F 34.5 °F 37.4 °F 81% 29.97 in 10.0 mi SSW 18.4 mph 25.3 mph N/A   Mostly Cloudy
12:19 PM 42.8 °F 35.1 °F 37.4 °F 81% 29.96 in 10.0 mi SW 16.1 mph 25.3 mph N/A   Mostly Cloudy
12:54 PM 43.0 °F 35.1 °F 36.0 °F 76% 29.85 in 10.0 mi SW 17.3 mph 24.2 mph 0.00 in   Scattered Clouds
1:05 PM 42.8 °F 35.1 °F 35.6 °F 76% 29.94 in 10.0 mi SSW 16.1 mph 24.2 mph N/A   Mostly Cloudy
1:54 PM 43.0 °F 33.3 °F 37.0 °F 80% 29.82 in 10.0 mi SSW 25.3 mph 34.5 mph 0.00 in   Overcast
2:05 PM 42.8 °F 33.8 °F 37.4 °F 81% 29.91 in 10.0 mi SSW 21.9 mph 35.7 mph N/A   Mostly Cloudy
2:15 PM 44.6 °F 35.9 °F 35.6 °F 71% 29.90 in 10.0 mi SSW 23.0 mph 33.4 mph N/A   Scattered Clouds
2:54 PM 43.0 °F 34.8 °F 35.1 °F 74% 29.81 in 10.0 mi SSW 18.4 mph 26.5 mph 0.00 in Rain Light Rain
3:54 PM 43.0 °F 35.1 °F 34.0 °F 71% 29.78 in 10.0 mi SSW 17.3 mph 32.2 mph 0.00 in   Mostly Cloudy
4:54 PM 43.0 °F 33.8 °F 30.9 °F 62% 29.80 in 10.0 mi SW 23.0 mph 28.8 mph N/A   Mostly Cloudy
5:54 PM 39.9 °F 31.8 °F 28.9 °F 65% 29.81 in 10.0 mi SW 15.0 mph 25.3 mph N/A   Scattered Clouds
6:54 PM 37.0 °F 28.5 °F 28.0 °F 70% 29.82 in 10.0 mi SW 13.8 mph - N/A   Clear
7:54 PM 35.1 °F 26.4 °F 30.9 °F 85% 29.83 in 10.0 mi SSW 12.7 mph 24.2 mph N/A   Clear
8:45 PM 35.6 °F 25.9 °F 30.2 °F 81% 29.89 in 10.0 mi SSW 16.1 mph 25.3 mph N/A   Overcast
8:54 PM 35.1 °F 24.8 °F 32.0 °F 89% 29.83 in 10.0 mi SW 17.3 mph 24.2 mph 0.00 in   Overcast
9:06 PM 33.8 °F 22.5 °F 30.2 °F 87% 29.88 in 1.8 mi SSW 19.6 mph 25.3 mph 0.00 in Snow Light Snow
9:17 PM 33.8 °F 23.5 °F 30.2 °F 87% 29.88 in 2.5 mi SW 16.1 mph 26.5 mph 0.00 in Snow Light Snow
9:25 PM 33.8 °F 24.3 °F 30.2 °F 87% 29.88 in 3.0 mi SW 13.8 mph 21.9 mph 0.00 in Snow Light Snow
9:54 PM 34.0 °F 23.8 °F 32.0 °F 92% 29.81 in 10.0 mi SSW 16.1 mph 21.9 mph 0.00 in   Overcast
10:16 PM 33.8 °F 23.2 °F 30.2 °F 87% 29.87 in 2.5 mi SW 17.3 mph 25.3 mph 0.00 in Snow Light Snow
10:25 PM 33.8 °F 24.3 °F 30.2 °F 87% 29.87 in 6.0 mi SW 13.8 mph - 0.00 in Snow Light Snow
10:54 PM 34.0 °F 24.6 °F 32.0 °F 92% 29.80 in 10.0 mi SW 13.8 mph 20.7 mph 0.00 in   Overcast
11:32 PM 33.8 °F 25.3 °F 30.2 °F 87% 29.88 in 10.0 mi SSW 11.5 mph - N/A   Overcast
11:49 PM 33.8 °F 25.3 °F 30.2 °F 87% 29.87 in 10.0 mi South 11.5 mph - N/A   Overcast
11:54 PM 33.1 °F 25.5 °F 30.9 °F 92% 29.80 in 10.0 mi SSW 9.2 mph - N/A   Overcast